Powrót do katalogu

STARLINK-33684

AktywnyŁącznośćVLEO
NORAD 63649·PAYLOAD·🇺🇸 United States

Wystrzelony Apr 25, 2025 z Cape Canaveral Space Force Station

Loading…

Następne Przeloty (najbliższe 24 godziny)

TLE

ŚwieżeSource: CelesTrak SupGP

Epoka: Sep 15, 2026, 03:19 UTC

1 63649C 25083R   26258.13868056  .00021025  00000+0  76145-3 0  2589
2 63649  43.0034  14.9676 0001851 268.6558 120.5343 15.27571068    13

Śledź STARLINK-33684 w czasie rzeczywistym z AllMySat

Download on the App Store